This is the latest recevied weather packets stored in our database for station/object 9W2TBJ-4. If no packets are shown the sender has not sent any weather packets the latest 10 day(s).
| Time | Temp. | Humidity | Pressure | Rain* | Wind** | Luminosity | Snow |
|---|---|---|---|---|---|---|---|
| 1777693967 | 32.78° C | 59% | 1011.6 hPa | - | - | - | - |
| 1777692768 | 32.22° C | 60% | 1012.2 hPa | - | - | - | - |
| 1777691568 | 32.22° C | 59% | 1012.1 hPa | - | - | - | - |
| 1777690367 | 32.78° C | 58% | 1012.2 hPa | - | - | - | - |
| 1777689168 | 32.78° C | 59% | 1012.1 hPa | - | - | - | - |
| 1777687967 | 32.22° C | 59% | 1011.9 hPa | - | - | - | - |
| 1777686767 | 31.67° C | 60% | 1012 hPa | - | - | - | - |
| 1777685567 | 31.67° C | 59% | 1011.9 hPa | - | - | - | - |
| 1777684367 | 32.22° C | 60% | 1011.8 hPa | - | - | - | - |
| 1777683167 | 32.22° C | 59% | 1011.7 hPa | - | - | - | - |
| 1777682141 | 31.11° C | 61% | 1011.2 hPa | - | - | - | - |
| 1777681967 | 31.11° C | 61% | 1011.2 hPa | - | - | - | - |
| 1777680767 | 31.11° C | 61% | 1011.1 hPa | - | - | - | - |
| 1777679567 | 31.11° C | 62% | 1010.9 hPa | - | - | - | - |
| 1777678461 | 30.56° C | 63% | 1010.6 hPa | - | - | - | - |
| 1777678367 | 30.56° C | 63% | 1010.6 hPa | - | - | - | - |
| 1777677167 | 30° C | 65% | 1010.2 hPa | - | - | - | - |
| 1777675967 | 30° C | 66% | 1010 hPa | - | - | - | - |
| 1777673567 | 30.56° C | 64% | 1009.7 hPa | - | - | - | - |
| 1777672367 | 30.56° C | 64% | 1009.4 hPa | - | - | - | - |
| 1777671169 | 30° C | 65% | 1009.5 hPa | - | - | - | - |
| 1777669966 | 30° C | 66% | 1009.4 hPa | - | - | - | - |
| 1777668766 | 30.56° C | 65% | 1009.5 hPa | - | - | - | - |
| 1777667567 | 30.56° C | 64% | 1009.7 hPa | - | - | - | - |
| 1777666366 | 30.56° C | 63% | 1009.9 hPa | - | - | - | - |
* Rain since midnight (hover to see other rain measurements)
** Current wind speed in m/s (hover to see current wind gust speed)